Weather History for Cheyenne, WY

Change the Weather History Date:

Saturday, March 16, 2013

  Actual Average Record
Temperature  
Mean Temperature 39 °F 36 °F  
Max Temperature 48 °F 48 °F 70 °F (2012)
Min Temperature 29 °F 25 °F -17 °F (1906)
Degree Days  
Heating Degree Days 26 29  
Month to date heating degree days 444 491  
Since 1 July heating degree days 5377 5510  
Cooling Degree Days 0 0  
Month to date cooling degree days 0 0  
Year to date cooling degree days 0 0  
Moisture  
Dew Point 25 °F    
Average Humidity 56    
Maximum Humidity 70    
Minimum Humidity 33    
Precipitation  
Precipitation T in 0.03 in 0.38 in (1987)
Month to date precipitation 0.31 0.48  
Year to date precipitation 1.19 1.28  
Snow  
Snow 0.00 in 0.40 in 4.80 in (1924)
Month to date snowfall 4.2 5.5  
Since 1 July snowfall 42.6 42.0  
Snow Depth 0.00 in    
Sea Level Pressure  
Sea Level Pressure 29.86 in    
Wind  
Wind Speed 11 mph (SSW)    
Max Wind Speed 28 mph    
Max Gust Speed 35 mph    
Visibility 10 miles    
Events      
T = Trace of Precipitation, MM = Missing Value Source: NWS Daily Summary

Daily Weather History Graph

Daily Weather History Graph

Search for Another Location

Airport:

Trip Planner

Search our weather history database for the weather conditions in past years. The results will help you decide how hot, cold, wet, or windy it might be!

Date:

Astronomy

Mar. 16, 2013 Rise Set
Actual Time 7:08 AM MDT 7:07 PM MDT
Civil Twilight 6:41 AM MDT 7:34 PM MDT
Nautical Twilight 6:09 AM MDT 8:06 PM MDT
Astronomical Twilight 5:36 AM MDT 8:39 PM MDT
Moon 9:37 AM MDT (3/16) No Moon Set
Length of Visible Light 12h 53m
Length of Day
11h 58m
Waxing Crescent, 23% of the Moon is Illuminated
Mar 16
Waxing Crescent
Mar 19
First Quarter
Mar 27
Full
Apr 2
Last Quarter
Apr 10
New

Hourly Weather History & Observations

Time (MDT) Temp. Windchill Dew Point Humidity Pressure Visibility Wind Dir Wind Speed Gust Speed Precip Events Conditions
12:53 AM 46.0 °F 43.1 °F 23.0 °F 40% 29.82 in 10.0 mi ENE 5.8 mph - N/A   Overcast
1:53 AM 44.1 °F 38.6 °F 24.1 °F 45% 29.84 in 10.0 mi ESE 10.4 mph 17.3 mph N/A   Overcast
2:53 AM 39.9 °F 35.8 °F 24.1 °F 53% 29.84 in 10.0 mi East 5.8 mph - N/A   Partly Cloudy
3:53 AM 37.0 °F 30.4 °F 24.1 °F 59% 29.86 in 10.0 mi ENE 9.2 mph - N/A   Partly Cloudy
4:53 AM 34.0 °F 31.0 °F 23.0 °F 64% 29.89 in 10.0 mi East 3.5 mph - N/A   Clear
5:53 AM 33.1 °F 28.7 °F 23.0 °F 66% 29.93 in 10.0 mi South 4.6 mph - N/A   Clear
6:53 AM 33.1 °F 28.7 °F 24.1 °F 70% 29.93 in 10.0 mi South 4.6 mph - N/A   Partly Cloudy
7:13 AM 33.8 °F 29.6 °F 24.8 °F 70% 30.02 in 10.0 mi SSW 4.6 mph - N/A   Mostly Cloudy
7:53 AM 35.1 °F 27.4 °F 25.0 °F 67% 29.93 in 10.0 mi SSW 10.4 mph - N/A   Overcast
8:10 AM 35.6 °F 28.0 °F 24.8 °F 65% 30.01 in 10.0 mi South 10.4 mph - N/A   Overcast
8:53 AM 36.0 °F 27.5 °F 25.0 °F 64% 29.93 in 10.0 mi SSW 12.7 mph - N/A   Overcast
9:53 AM 37.9 °F 28.2 °F 26.1 °F 62% 29.91 in 10.0 mi SSW 18.4 mph 24.2 mph N/A   Overcast
10:30 AM 39.2 °F 29.6 °F 26.6 °F 61% 29.98 in 10.0 mi South 19.6 mph 27.6 mph N/A   Mostly Cloudy
10:38 AM 39.2 °F 29.0 °F 26.6 °F 61% 29.98 in 10.0 mi South 21.9 mph 27.6 mph N/A   Scattered Clouds
10:53 AM 39.0 °F 28.3 °F 26.1 °F 60% 29.89 in 10.0 mi South 24.2 mph 31.1 mph N/A   Partly Cloudy
11:53 AM 43.0 °F 34.2 °F 26.1 °F 51% 29.84 in 10.0 mi South 20.7 mph 31.1 mph N/A   Scattered Clouds
12:53 PM 45.0 °F 36.6 °F 26.1 °F 48% 29.82 in 10.0 mi South 21.9 mph 31.1 mph N/A   Clear
1:53 PM 45.0 °F 38.5 °F 26.1 °F 48% 29.82 in 10.0 mi SSW 13.8 mph 21.9 mph N/A   Mostly Cloudy
2:53 PM 46.9 °F - 27.0 °F 46% 29.79 in 10.0 mi South 9.2 mph - 0.00 in   Mostly Cloudy
3:53 PM 46.0 °F 39.0 °F 30.0 °F 54% 29.79 in 10.0 mi South 17.3 mph 23.0 mph 0.00 in   Scattered Clouds
4:53 PM 46.0 °F 40.2 °F 28.0 °F 50% 29.79 in 10.0 mi South 12.7 mph - N/A   Scattered Clouds
5:53 PM 46.9 °F - 27.0 °F 46% 29.78 in 10.0 mi SW 10.4 mph - N/A   Overcast
6:53 PM 44.1 °F 37.7 °F 28.9 °F 55% 29.80 in 10.0 mi SSW 12.7 mph - N/A   Mostly Cloudy
7:53 PM 41.0 °F 38.0 °F 28.9 °F 62% 29.81 in 10.0 mi WNW 4.6 mph - N/A   Clear
8:53 PM 37.0 °F 31.6 °F 26.1 °F 65% 29.83 in 10.0 mi West 6.9 mph - N/A   Clear
9:53 PM 36.0 °F 31.1 °F 19.9 °F 52% 29.85 in 10.0 mi NNW 5.8 mph - N/A   Clear
10:53 PM 36.0 °F 30.3 °F 25.0 °F 64% 29.82 in 10.0 mi NNW 6.9 mph - N/A   Clear
11:53 PM 32.0 °F 25.6 °F 23.0 °F 69% 29.80 in 10.0 mi West 6.9 mph - N/A   Clear